This is the latest recevied weather packets stored in our database for station/object EA5GTE-12. If no packets are shown the sender has not sent any weather packets the latest 10 day(s).
| Time | Temp. | Humidity | Pressure | Rain* | Wind** | Luminosity | Snow |
|---|---|---|---|---|---|---|---|
| 1778008946 | 13.33° C | 43% | 934.1 hPa | - | - | - | - |
| 1778007147 | 15° C | 38% | 933.7 hPa | - | - | - | - |
| 1778006247 | 17.22° C | 32% | 933.6 hPa | - | - | - | - |
| 1778005347 | 18.89° C | 29% | 933.4 hPa | - | - | - | - |
| 1778004447 | 18.89° C | 30% | 933.3 hPa | - | - | - | - |
| 1778003547 | 17.78° C | 30% | 933.1 hPa | - | - | - | - |
| 1778002739 | 17.22° C | 31% | 933.1 hPa | - | - | - | - |
| 1778002647 | 17.22° C | 31% | 933.1 hPa | - | - | - | - |
| 1778001747 | 21.11° C | 25% | 932.9 hPa | - | - | - | - |
| 1778000847 | 22.22° C | 24% | 932.9 hPa | - | - | - | - |
| 1777999947 | 22.22° C | 25% | 933 hPa | - | - | - | - |
| 1777999047 | 22.78° C | 24% | 933.1 hPa | - | - | - | - |
| 1777998146 | 23.33° C | 24% | 933 hPa | - | - | - | - |
| 1777997246 | 20° C | 27% | 933.2 hPa | - | - | - | - |
| 1777996346 | 24.44° C | 23% | 933.1 hPa | - | - | - | - |
| 1777995446 | 21.67° C | 24% | 933.2 hPa | - | - | - | - |
| 1777994546 | 21.11° C | 26% | 933.1 hPa | - | - | - | - |
| 1777993646 | 21.67° C | 23% | 933.1 hPa | - | - | - | - |
| 1777992746 | 22.78° C | 24% | 933.2 hPa | - | - | - | - |
| 1777991846 | 22.78° C | 24% | 933.4 hPa | - | - | - | - |
| 1777990945 | 19.44° C | 28% | 933.7 hPa | - | - | - | - |
| 1777990045 | 22.78° C | 24% | 933.7 hPa | - | - | - | - |
| 1777989145 | 23.89° C | 25% | 933.7 hPa | - | - | - | - |
| 1777988245 | 20.56° C | 32% | 934.2 hPa | - | - | - | - |
| 1777987345 | 21.11° C | 28% | 934.2 hPa | - | - | - | - |
* Rain since midnight (hover to see other rain measurements)
** Current wind speed in m/s (hover to see current wind gust speed)